This demonstration page uses our WeatherBlox Daily Observations layout. Learn more.

38.88101, -77.10428

Hourly Observations for August 8, 2017

Temp ( °F °C ) Dew Point ( °F °C ) Humidity (%) Winds ( mph kmh ) Pressure ( in mb ) Visibility ( mi km ) Precip ( " mm )
12:52 am 00:52 Cloudy 72 22.2 70 21.1 94 94 NNE 3 6 29.92 1013 10 16.0934 0 0.0254
1:52 am 01:52 Cloudy 72 22.2 69 20.6 91 91 Calm 29.91 1013 10 16.0934 0 0
2:52 am 02:52 Cloudy with Light Rain 72 22.2 69 20.6 91 91 NW 3 6 29.92 1013 10 16.0934 0.01 0.254
3:23 am 03:23 Cloudy with Light Rain 71 21.7 70 21.1 96 96 NNW 5 7 29.94 1014 7 11.26538 0 0.0254
3:52 am 03:52 Cloudy with Light Rain 71 21.7 69 20.6 94 94 NNW 7 11 29.92 1013 6 9.65604 0.02 0.508
4:18 am 04:18 Cloudy with Light Rain 70 21.1 69 20.6 97 97 NNW 8 13 29.91 1013 8 12.87472 0.01 0.254
4:52 am 04:52 Cloudy with Light Drizzle 70 21.1 69 20.6 97 97 NNW 10 17 29.91 1013 9 14.48406 0.01 0.254
5:45 am 05:45 Cloudy 70 21.1 69 20.6 97 97 NW 8 13 29.94 1014 9 14.48406 0 0.0254
5:52 am 05:52 Cloudy 70 21.1 69 20.6 97 97 NNW 7 11 29.92 1013 10 16.0934 0 0.0254
6:01 am 06:01 Cloudy 70 21.1 68 20 93 93 NNW 7 11 29.94 1014 10 16.0934 0 0
6:37 am 06:37 Cloudy 70 21.1 68 20 93 93 N 6 9 29.94 1014 10 16.0934 0 0
6:52 am 06:52 Cloudy 70 21.1 68 20 93 93 NW 8 13 29.94 1014 7 11.26538 0 0
7:52 am 07:52 Cloudy 70 21.1 67 19.4 90 90 NNW 9 15 29.96 1015 10 16.0934 0 0
8:52 am 08:52 Cloudy 70 21.1 67 19.4 90 90 NNW 10 17 29.98 1015 10 16.0934 0 0
9:52 am 09:52 Cloudy 73 22.8 68 20 84 84 NNW 12 19 29.99 1016 10 16.0934 0 0
10:52 am 10:52 Cloudy 74 23.3 65 18.3 74 74 N 13 20 30.01 1016 10 16.0934 0 0
11:52 am 11:52 Cloudy 75 23.9 64 17.8 69 69 N 10 17 30.02 1017 10 16.0934 0 0
12:52 pm 12:52 Cloudy 76 24.4 63 17.2 64 64 N 10 17 30.04 1017 10 16.0934 0 0
1:52 pm 13:52 Mostly Cloudy 78 25.6 63 17.2 60 60 N 12 19 30.04 1017 10 16.0934 0 0
2:52 pm 14:52 Mostly Cloudy 79 26.1 62 16.7 56 56 NNE 13 20 30.05 1018 10 16.0934 0 0
3:52 pm 15:52 Mostly Cloudy 79 26.1 62 16.7 56 56 N 12 19 30.05 1018 10 16.0934 0 0
4:52 pm 16:52 Mostly Cloudy 79 26.1 59 15 50 50 N 9 15 30.05 1018 10 16.0934 0 0
5:52 pm 17:52 Mostly Cloudy 81 27.2 60 15.6 49 49 NE 7 11 30.05 1018 10 16.0934 0 0
6:52 pm 18:52 Partly Cloudy 79 26.1 61 16.1 54 54 NE 3 6 30.06 1018 10 16.0934 0 0
7:52 pm 19:52 Partly Cloudy 78 25.6 60 15.6 54 54 ESE 5 7 30.07 1018 10 16.0934 0 0
8:52 pm 20:52 Partly Cloudy 76 24.4 62 16.7 62 62 SE 3 6 30.09 1019 10 16.0934 0 0
9:52 pm 21:52 Mostly Clear 73 22.8 63 17.2 71 71 S 6 9 30.11 1020 10 16.0934 0 0
10:52 pm 22:52 Mostly Clear 72 22.2 64 17.8 76 76 SW 5 7 30.13 1020 10 16.0934 0 0
11:52 pm 23:52 Mostly Clear 72 22.2 64 17.8 76 76 SW 3 6 30.14 1021 10 16.0934 0 0

Powered by AerisWeather